{"data":{"norad_id":68335,"intl_designator":"2026-059Q","name":"STARLINK-37217","alt_names":[],"object_type":"PAYLOAD","status":"ACTIVE","operator":null,"country":"US","launch_date":"2026-03-22","launch_site_code":"AFETR","launch_vehicle":null,"mission":null,"orbit_class":"UNKNOWN","rcs_meters":null,"size_class":null,"mass_kg":null,"dimensions":null,"purposes":["comms"],"wikipedia_slug":null,"has_3d_model":false,"image_url":null,"decayed_at":null,"tle_current":{"epoch":"2026-05-24T20:09:07.647840Z","epoch_age_seconds":92869,"freshness":"FRESH","line1":"1 68335U 26059Q   26144.83967185  .00047462  00000+0  85562-3 0  9992","line2":"2 68335  53.1590 350.3482 0001084  88.9576 271.1557 15.49329951  9893","mean_motion":15.49329951,"eccentricity":0.0001084,"inclination_deg":53.159,"raan_deg":350.3482,"arg_perigee_deg":88.9576,"mean_anomaly_deg":271.1557,"bstar":0.00085562,"rev_number":989,"period_min":92.943404280706,"perigee_km":417.94823219523,"apogee_km":419.4217832065,"semimajor_km":6796.8220077009,"source":"CELESTRAK","updated_at":"2026-05-25T13:38:21.924520Z"}}}